Naples, FL

10:53 AM EST on February 27, 2017 (GMT -0500)
Naples Municipal

Weather History for KAPF - March, 2015

Change the Weather History Date:

Sunday, March 15, 2015

  Actual Average Record
Temperature  
Mean Temperature 76 °F 70 °F  
Max Temperature 85 °F 80 °F 90 °F (1952)
Min Temperature 67 °F 60 °F 37 °F (1993)
Degree Days  
Heating Degree Days 0 1  
Month to date heating degree days 0 15  
Since 1 July heating degree days 197 248  
Cooling Degree Days 11 5  
Month to date cooling degree days 174 75  
Year to date cooling degree days 350 266  
Growing Degree Days 26 (Base 50)    
Moisture  
Dew Point 68 °F    
Average Humidity 78    
Maximum Humidity 100    
Minimum Humidity 55    
Precipitation  
Precipitation 0.00 in 0.06 in 0.85 in (1991)
Month to date precipitation 0.28 1.03  
Year to date precipitation 1.92 4.98  
Snow  
Snow 0.00 in - - ()
Month to date snowfall 0.0  
Since 1 July snowfall 0.0  
Snow Depth 0.00 in    
Sea Level Pressure  
Sea Level Pressure 30.13 in    
Wind  
Wind Speed 7 mph (North)    
Max Wind Speed 14 mph    
Max Gust Speed 16 mph    
Visibility 10 miles    
Events      
T = Trace of Precipitation, MM = Missing Value Source: NWS Daily Summary

Daily Weather History Graph

Daily Weather History Graph

Search for Another Location

Airport or City:

Trip Planner

Search our weather history database for the weather conditions in past years. The results will help you decide how hot, cold, wet, or windy it might be!

Date:

Astronomy

Mar. 15, 2015 Rise Set
Actual Time 7:36 AM EDT 7:35 PM EDT
Civil Twilight 7:13 AM EDT 7:58 PM EDT
Nautical Twilight 6:46 AM EDT 8:25 PM EDT
Astronomical Twilight 6:20 AM EDT 8:52 PM EDT
Moon 3:32 AM EDT (3/15) 2:47 PM EDT (3/15)
Length of Visible Light 12h 45m
Length of Day
11h 59m
Waning Crescent, 29% of the Moon is Illuminated
Mar 15
Waning Crescent
Mar 20
New
Mar 27
First Quarter
Apr 4
Full
Apr 11
Last Quarter

Hourly Weather History & Observations

Time (EDT) Temp. Heat Index Dew Point Humidity Pressure Visibility Wind Dir Wind Speed Gust Speed Precip Events Conditions
12:53 AM 72.0 °F - 70.0 °F 93% 30.11 in 9.0 mi NE 4.6 mph - N/A   Clear
1:53 AM 71.1 °F - 69.1 °F 93% 30.10 in 8.0 mi ENE 4.6 mph - N/A   Clear
2:53 AM 71.1 °F - 69.1 °F 93% 30.10 in 9.0 mi NNE 3.5 mph - N/A   Clear
3:53 AM 69.1 °F - 69.1 °F 100% 30.10 in 8.0 mi ENE 5.8 mph - N/A   Clear
4:53 AM 69.1 °F - 68.0 °F 96% 30.10 in 9.0 mi ENE 3.5 mph - N/A   Clear
5:53 AM 69.1 °F - 68.0 °F 96% 30.12 in 10.0 mi NE 3.5 mph - N/A   Clear
6:53 AM 68.0 °F - 66.9 °F 96% 30.13 in 9.0 mi Calm Calm - N/A   Clear
7:53 AM 68.0 °F - 66.9 °F 96% 30.14 in 8.0 mi East 4.6 mph - N/A   Clear
8:53 AM 72.0 °F - 69.1 °F 91% 30.17 in 10.0 mi East 5.8 mph - N/A   Clear
9:53 AM 77.0 °F - 69.1 °F 76% 30.18 in 10.0 mi ENE 8.1 mph - N/A   Clear
10:53 AM 81.0 °F 83.3 °F 66.9 °F 62% 30.19 in 10.0 mi ENE 9.2 mph - N/A   Scattered Clouds
11:53 AM 82.0 °F 84.9 °F 68.0 °F 62% 30.18 in 10.0 mi ENE 5.8 mph - N/A   Mostly Cloudy
12:53 PM 84.0 °F 86.3 °F 66.0 °F 55% 30.16 in 10.0 mi Variable 4.6 mph - N/A   Mostly Cloudy
1:53 PM 82.9 °F 85.4 °F 66.9 °F 58% 30.14 in 10.0 mi Variable 3.5 mph - N/A   Partly Cloudy
2:53 PM 82.9 °F 85.8 °F 68.0 °F 60% 30.12 in 10.0 mi West 12.7 mph - N/A   Scattered Clouds
3:53 PM 82.0 °F 84.5 °F 66.9 °F 60% 30.10 in 10.0 mi WSW 11.5 mph - N/A   Scattered Clouds
4:53 PM 81.0 °F 83.0 °F 66.0 °F 60% 30.09 in 10.0 mi WSW 11.5 mph - N/A   Partly Cloudy
5:53 PM 80.1 °F 82.7 °F 68.0 °F 67% 30.09 in 10.0 mi WNW 11.5 mph - N/A   Clear
6:53 PM 77.0 °F - 69.1 °F 76% 30.11 in 10.0 mi WNW 9.2 mph - N/A   Partly Cloudy
7:53 PM 75.9 °F - 69.1 °F 79% 30.12 in 10.0 mi WNW 6.9 mph - N/A   Clear
8:53 PM 75.0 °F - 72.0 °F 90% 30.13 in 10.0 mi NW 6.9 mph - N/A   Clear
9:53 PM 75.0 °F - 70.0 °F 84% 30.14 in 10.0 mi NW 6.9 mph - N/A   Clear
10:53 PM 75.0 °F - 71.1 °F 87% 30.14 in 10.0 mi NW 6.9 mph - N/A   Clear
11:53 PM 75.0 °F - 70.0 °F 84% 30.16 in 10.0 mi NNW 5.8 mph - N/A   Clear